Location: Arrien
(43.3167°N, 0.1500°W)
Time: 16:50:07
(UTC+00:00)

Cosmos 2082 - Pass Details

Date: 30 May 2022
Orbit: 835 x 853 km, 71.0° (Epoch: 01 July)

Event Time Altitude Azimuth Distance (km) Brightness Sun altitude
Rises 20:38:37 0° 329° (NNW) 3,397 8.6 -10.3°
Reaches altitude 10° 20:41:10 10° 323° (NW) 2,457 7.7 -10.7°
Maximum altitude 20:46:26 43° 253° (WSW) 1,168 4.7 -11.3°
Drops below altitude 10° 20:51:40 10° 184° (S) 2,438 5.7 -12.0°
Enters shadow 20:52:41 - 181° (S) 2,803 6.0 -12.1°
